48.7°F
Current conditions from King Hill
Updated every 5 minutes
 
  Monday April 21, 2014

Station Historical Data
 
Daily Summary for April 21, 2014 Units:  English    Metric   Both
« Previous Day
Next Day »
Daily Weekly Monthly Yearly Custom
  Current: High: Low: Average:
Temperature: 48.7 °F 51.9 °F 48.6 °F 50.2 °F
Dew Point: 26.6 °F 26.8 °F 21.8 °F 24.7 °F
Humidity: 42% 42% 31% 37%
Wind Speed: 7.0mph 10.0mph 2.0mph 5.4mph
Wind Gust: 18.0mph 22.0mph - -
WindSW - - SSW
Pressure: 30.05 in 30.16 in 30.05 in -
Precipitation: 0.00 in      
Historical Graphs
 
 
Tabular Data for April 21, 2014
Time Temperature Dew Point Pressure Wind Wind Speed Wind Gust Humidity Daily Rainfall
00:04 51.5 °F 23.3 °F 30.16 in SSW 4.0 mph 12.0 mph 33% 0.00 in
00:09 51.2 °F 23.1 °F 30.16 in SSW 4.0 mph 12.0 mph 33% 0.00 in
00:14 51.0 °F 22.9 °F 30.15 in SSW 3.0 mph 11.0 mph 33% 0.00 in
00:19 51.0 °F 22.9 °F 30.15 in SSW 3.0 mph 16.0 mph 33% 0.00 in
00:24 50.9 °F 22.8 °F 30.15 in SSW 2.0 mph 16.0 mph 33% 0.00 in
00:29 50.9 °F 22.8 °F 30.15 in SSW 4.0 mph 11.0 mph 33% 0.00 in
00:34 51.1 °F 23.0 °F 30.15 in SSW 6.0 mph 12.0 mph 33% 0.00 in
00:39 51.4 °F 23.3 °F 30.14 in SSW 4.0 mph 12.0 mph 33% 0.00 in
00:44 51.4 °F 23.3 °F 30.14 in SSW 5.0 mph 13.0 mph 33% 0.00 in
00:49 51.5 °F 22.6 °F 30.14 in SSW 7.0 mph 15.0 mph 32% 0.00 in
00:54 51.6 °F 21.9 °F 30.13 in SSW 4.0 mph 15.0 mph 31% 0.00 in
00:59 51.7 °F 22.0 °F 30.13 in SSW 6.0 mph 13.0 mph 31% 0.00 in
01:04 51.9 °F 22.2 °F 30.13 in SSW 5.0 mph 14.0 mph 31% 0.00 in
01:09 51.8 °F 22.1 °F 30.13 in SSW 6.0 mph 14.0 mph 31% 0.00 in
01:14 51.8 °F 22.1 °F 30.13 in SW 4.0 mph 11.0 mph 31% 0.00 in
01:19 51.5 °F 21.9 °F 30.13 in SW 6.0 mph 12.0 mph 31% 0.00 in
01:24 51.4 °F 21.8 °F 30.13 in SSW 5.0 mph 12.0 mph 31% 0.00 in
01:29 51.5 °F 22.6 °F 30.12 in SSW 2.0 mph 12.0 mph 32% 0.00 in
01:34 51.4 °F 22.5 °F 30.12 in SSW 4.0 mph 12.0 mph 32% 0.00 in
01:39 51.6 °F 21.9 °F 30.11 in SSW 5.0 mph 14.0 mph 31% 0.00 in
01:44 51.8 °F 22.9 °F 30.11 in SSW 5.0 mph 15.0 mph 32% 0.00 in
01:49 51.9 °F 23.0 °F 30.11 in SSW 6.0 mph 16.0 mph 32% 0.00 in
01:54 51.7 °F 22.8 °F 30.11 in SSW 3.0 mph 16.0 mph 32% 0.00 in
01:59 51.5 °F 23.3 °F 30.11 in SW 4.0 mph 14.0 mph 33% 0.00 in
02:04 51.3 °F 23.2 °F 30.11 in SSW 5.0 mph 17.0 mph 33% 0.00 in
02:09 51.1 °F 23.7 °F 30.11 in SSW 4.0 mph 17.0 mph 34% 0.00 in
02:14 50.8 °F 24.1 °F 30.11 in SW 4.0 mph 16.0 mph 35% 0.00 in
02:19 50.5 °F 24.5 °F 30.11 in SSW 7.0 mph 16.0 mph 36% 0.00 in
02:24 50.5 °F 25.2 °F 30.10 in SSW 8.0 mph 17.0 mph 37% 0.00 in
02:29 50.3 °F 25.0 °F 30.10 in SSW 5.0 mph 17.0 mph 37% 0.00 in
02:34 50.3 °F 25.0 °F 30.10 in SSW 7.0 mph 15.0 mph 37% 0.00 in
02:39 50.3 °F 25.0 °F 30.10 in SSW 5.0 mph 15.0 mph 37% 0.00 in
02:44 50.3 °F 25.0 °F 30.10 in SSW 8.0 mph 22.0 mph 37% 0.00 in
02:49 50.2 °F 25.6 °F 30.09 in SSW 4.0 mph 22.0 mph 38% 0.00 in
02:54 49.9 °F 25.3 °F 30.09 in SSW 7.0 mph 17.0 mph 38% 0.00 in
02:59 49.8 °F 25.2 °F 30.09 in SSW 6.0 mph 14.0 mph 38% 0.00 in
03:04 49.8 °F 25.8 °F 30.09 in SSW 5.0 mph 15.0 mph 39% 0.00 in
03:09 49.6 °F 25.7 °F 30.09 in SW 4.0 mph 15.0 mph 39% 0.00 in
03:14 49.7 °F 25.7 °F 30.09 in SSW 4.0 mph 13.0 mph 39% 0.00 in
03:19 49.8 °F 25.8 °F 30.08 in SSW 7.0 mph 14.0 mph 39% 0.00 in
03:24 49.9 °F 25.9 °F 30.08 in SSW 6.0 mph 14.0 mph 39% 0.00 in
03:29 49.8 °F 25.8 °F 30.08 in SSW 6.0 mph 14.0 mph 39% 0.00 in
03:34 49.7 °F 25.7 °F 30.08 in SSW 6.0 mph 16.0 mph 39% 0.00 in
03:39 49.6 °F 26.3 °F 30.08 in SSW 6.0 mph 16.0 mph 40% 0.00 in
03:44 49.5 °F 26.2 °F 30.08 in SSW 4.0 mph 13.0 mph 40% 0.00 in
03:49 49.4 °F 26.1 °F 30.08 in SSW 7.0 mph 14.0 mph 40% 0.00 in
03:54 49.3 °F 26.0 °F 30.07 in SSW 6.0 mph 14.0 mph 40% 0.00 in
03:59 49.3 °F 26.0 °F 30.07 in SSW 8.0 mph 15.0 mph 40% 0.00 in
04:04 49.3 °F 26.0 °F 30.06 in SSW 10.0 mph 19.0 mph 40% 0.00 in
04:09 49.3 °F 26.0 °F 30.06 in SSW 7.0 mph 19.0 mph 40% 0.00 in
04:14 49.2 °F 25.9 °F 30.06 in SSW 8.0 mph 17.0 mph 40% 0.00 in
04:19 49.1 °F 26.4 °F 30.06 in SSW 5.0 mph 17.0 mph 41% 0.00 in
04:24 48.9 °F 26.2 °F 30.06 in SSW 7.0 mph 15.0 mph 41% 0.00 in
04:29 49.1 °F 26.4 °F 30.06 in SSW 4.0 mph 15.0 mph 41% 0.00 in
04:34 49.0 °F 26.3 °F 30.06 in SSW 6.0 mph 16.0 mph 41% 0.00 in
04:39 49.0 °F 26.3 °F 30.06 in SW 4.0 mph 16.0 mph 41% 0.00 in
04:44 48.9 °F 26.2 °F 30.06 in SW 6.0 mph 12.0 mph 41% 0.00 in
04:49 48.9 °F 26.2 °F 30.06 in SSW 5.0 mph 12.0 mph 41% 0.00 in
04:54 48.9 °F 26.8 °F 30.06 in SSW 5.0 mph 14.0 mph 42% 0.00 in
04:59 48.8 °F 26.1 °F 30.05 in SW 7.0 mph 16.0 mph 41% 0.00 in
05:04 48.8 °F 26.7 °F 30.05 in SSW 4.0 mph 16.0 mph 42% 0.00 in
05:09 48.7 °F 26.6 °F 30.05 in SSW 5.0 mph 14.0 mph 42% 0.00 in
05:14 48.6 °F 26.5 °F 30.05 in SW 6.0 mph 14.0 mph 42% 0.00 in
05:19 48.6 °F 26.5 °F 30.05 in SSW 6.0 mph 12.0 mph 42% 0.00 in
05:24 48.6 °F 26.5 °F 30.05 in SSW 7.0 mph 17.0 mph 42% 0.00 in
05:29 48.7 °F 26.6 °F 30.05 in SSW 7.0 mph 18.0 mph 42% 0.00 in
05:34 48.7 °F 26.6 °F 30.05 in SW 7.0 mph 18.0 mph 42% 0.00 in
Westford Weather
Compliments of Weather Underground

 
 
Current Radar Loop:

Copyright © WestfordWeather.net 2007-2014. All rights reserved.